Weather History for Pittsburg, KS

Change the Weather History Date:

Friday, August 2, 2013

  Actual Average (KJLN) Record (KJLN)
Temperature  
Mean Temperature 80 °F 81 °F  
Max Temperature 88 °F 92 °F 110 °F (2011)
Min Temperature 72 °F 70 °F 55 °F (1973)
Degree Days  
Heating Degree Days 0 0  
Month to date heating degree days 0  
Since 1 June heating degree days 5  
Since 1 July heating degree days 0  
Cooling Degree Days 15 16  
Month to date cooling degree days 32  
Year to date cooling degree days 1003  
Since 1 June cooling degree days 823  
Growing Degree Days 30 (Base 50)    
Moisture  
Dew Point 75 °F    
Average Humidity 86    
Maximum Humidity 100    
Minimum Humidity 63    
Precipitation  
Precipitation 0.08 in 0.10 in 1.99 in (1981)
Month to date precipitation 0.19  
Year to date precipitation 27.81  
Sea Level Pressure  
Sea Level Pressure 29.92 in    
Wind  
Wind Speed 6 mph (SSE)    
Max Wind Speed 17 mph    
Max Gust Speed 24 mph    
Visibility 9 miles    
Events      
T = Trace of Precipitation, MM = Missing Value Source: NWS Daily Summary

Daily Weather History Graph

Daily Weather History Graph

Search for Another Location

Airport:

Trip Planner

Search our weather history database for the weather conditions in past years. The results will help you decide how hot, cold, wet, or windy it might be!

Date:

Astronomy

Aug. 02, 2013 Rise Set
Actual Time 6:24 AM CDT 8:25 PM CDT
Civil Twilight 5:55 AM CDT 8:54 PM CDT
Nautical Twilight 5:20 AM CDT 9:29 PM CDT
Astronomical Twilight 4:42 AM CDT 10:07 PM CDT
Moon 2:46 AM CDT 5:23 PM CDT
Length of Visible Light 14h 58m
Length of Day
14h 01m
Waning Crescent, 15% of the Moon is Illuminated
Aug 2
Waning Crescent
Aug 6
New
Aug 14
First Quarter
Aug 20
Full
Aug 28
Last Quarter

Hourly Weather History & Observations

Time (CDT) Temp. Heat Index Dew Point Humidity Pressure Visibility Wind Dir Wind Speed Gust Speed Precip Events Conditions
12:15 AM 76.1 °F - 70.3 °F 82% 29.97 in 10.0 mi SSE 5.8 mph - N/A   Clear
12:35 AM 76.1 °F - 69.1 °F 79% 29.97 in 10.0 mi SSE 5.8 mph - N/A   Clear
12:55 AM 76.5 °F - 67.3 °F 73% 29.97 in 10.0 mi South 9.2 mph - N/A   Clear
1:15 AM 77.0 °F - 66.9 °F 71% 29.96 in 10.0 mi SSE 5.8 mph - N/A   Clear
1:35 AM 76.1 °F - 66.9 °F 73% 29.96 in 10.0 mi SE 5.8 mph - N/A   Clear
1:55 AM 76.1 °F - 67.8 °F 75% 29.95 in 10.0 mi SSE 6.9 mph - N/A   Clear
2:15 AM 76.1 °F - 69.1 °F 79% 29.94 in 10.0 mi SSE 6.9 mph - N/A   Clear
2:35 AM 76.1 °F - 69.3 °F 79% 29.93 in 10.0 mi South 8.1 mph - N/A   Clear
2:55 AM 76.1 °F - 69.8 °F 81% 29.93 in 10.0 mi SSE 6.9 mph - N/A   Clear
3:15 AM 76.1 °F - 69.6 °F 80% 29.93 in 10.0 mi SSE 4.6 mph - N/A   Clear
3:35 AM 76.1 °F - 70.0 °F 81% 29.93 in 10.0 mi SE 4.6 mph - N/A   Clear
3:55 AM 76.1 °F - 70.5 °F 83% 29.93 in 10.0 mi SSE 4.6 mph - N/A   Clear
4:15 AM 76.1 °F - 70.9 °F 84% 29.93 in 10.0 mi SSE 4.6 mph - N/A   Clear
4:35 AM 76.1 °F - 70.9 °F 84% 29.93 in 10.0 mi SE 3.5 mph - N/A   Clear
4:55 AM 76.1 °F - 71.4 °F 85% 29.94 in 10.0 mi SSE 4.6 mph - N/A   Clear
5:15 AM 76.1 °F - 72.3 °F 88% 29.94 in 10.0 mi ESE 3.5 mph - N/A   Clear
5:35 AM 76.1 °F - 72.7 °F 89% 29.95 in 10.0 mi NE 3.5 mph - N/A   Clear
5:55 AM 73.9 °F - 73.6 °F 99% 29.97 in 10.0 mi Calm Calm - N/A   Clear
6:15 AM 73.4 °F - 73.6 °F 100% 29.96 in 10.0 mi East 3.5 mph - N/A   Clear
6:35 AM 73.4 °F - 73.6 °F 100% 29.96 in 10.0 mi Calm Calm - N/A   Clear
6:55 AM 73.4 °F - 73.6 °F 100% 29.96 in 10.0 mi Calm Calm - N/A   Clear
7:35 AM 73.4 °F - 73.6 °F 100% 29.97 in 10.0 mi Calm Calm - N/A   Scattered Clouds
7:55 AM 73.4 °F - 73.6 °F 100% 29.97 in 10.0 mi ESE 3.5 mph - N/A   Mostly Cloudy
8:15 AM 73.4 °F - 73.6 °F 100% 29.97 in 5.0 mi Calm Calm - 0.03 in   Mostly Cloudy
8:35 AM 72.9 °F - - N/A% 29.97 in 5.0 mi ESE 3.5 mph - 0.05 in   Overcast
8:55 AM 73.2 °F - - N/A% 29.96 in 5.0 mi South 4.6 mph - 0.08 in   Overcast
9:15 AM 73.4 °F - 73.6 °F 100% 29.95 in 7.0 mi SE 4.6 mph - N/A   Scattered Clouds
9:35 AM 73.4 °F - - N/A% 29.93 in 7.0 mi SSE 4.6 mph - N/A   Scattered Clouds
9:55 AM 73.4 °F - 73.6 °F 100% 29.94 in 7.0 mi SSE 5.8 mph - N/A   Scattered Clouds
10:15 AM 75.4 °F - 75.4 °F 100% 29.94 in 7.0 mi South 5.8 mph - N/A   Scattered Clouds
10:35 AM 76.1 °F - 76.1 °F 100% 29.95 in 7.0 mi South 6.9 mph - N/A   Scattered Clouds
10:55 AM 76.1 °F - 76.1 °F 100% 29.94 in 7.0 mi South 8.1 mph - N/A   Clear
11:15 AM 76.5 °F - 76.5 °F 100% 29.94 in 7.0 mi South 9.2 mph - N/A   Scattered Clouds
11:35 AM 77.5 °F - 77.7 °F 100% 29.94 in 7.0 mi SSW 11.5 mph 16.1 mph N/A   Scattered Clouds
11:55 AM 78.4 °F - 78.6 °F 100% 29.93 in 10.0 mi SSW 9.2 mph - N/A   Scattered Clouds
12:15 PM 79.9 °F - 79.2 °F 98% 29.92 in 10.0 mi SSW 17.3 mph 21.9 mph N/A   Scattered Clouds
12:35 PM 81.0 °F 89.5 °F 79.5 °F 95% 29.90 in 10.0 mi SW 16.1 mph 24.2 mph N/A   Scattered Clouds
12:55 PM 82.0 °F 91.6 °F 78.8 °F 90% 29.90 in 10.0 mi SW 17.3 mph 20.7 mph N/A   Clear
1:15 PM 82.9 °F 92.8 °F 78.1 °F 85% 29.89 in 10.0 mi SW 16.1 mph - N/A   Clear
1:35 PM 83.5 °F 93.3 °F 77.4 °F 82% 29.88 in 10.0 mi SW 12.7 mph 19.6 mph N/A   Clear
1:55 PM 84.4 °F 91.0 °F 73.2 °F 69% 29.88 in 10.0 mi SSW 12.7 mph 16.1 mph N/A   Clear
2:15 PM 86.4 °F 93.8 °F 73.2 °F 65% 29.88 in 10.0 mi SW 9.2 mph - N/A   Clear
2:35 PM 88.5 °F 97.8 °F 74.7 °F 63% 29.88 in 10.0 mi SW 11.5 mph 18.4 mph N/A   Clear
2:55 PM 86.0 °F 93.0 °F 73.0 °F 65% 29.88 in 10.0 mi South 10.4 mph 16.1 mph N/A   Clear
3:15 PM 85.6 °F 93.0 °F 73.8 °F 67% 29.88 in 10.0 mi SW 11.5 mph 16.1 mph N/A   Clear
3:35 PM 85.6 °F 94.2 °F 75.0 °F 70% 29.87 in 10.0 mi South 10.4 mph - N/A   Clear
3:55 PM 86.0 °F 95.1 °F 75.2 °F 70% 29.86 in 10.0 mi South 12.7 mph - N/A   Clear
4:15 PM 86.4 °F 95.5 °F 75.2 °F 69% 29.86 in 10.0 mi SSW 9.2 mph - N/A   Clear
4:35 PM 86.7 °F 95.9 °F 75.2 °F 68% 29.86 in 10.0 mi South 8.1 mph - N/A   Clear
4:55 PM 88.7 °F 100.4 °F 76.6 °F 67% 29.87 in 10.0 mi South 12.7 mph - N/A   Scattered Clouds
5:15 PM 87.8 °F 98.6 °F 76.1 °F 68% 29.87 in 10.0 mi SSW 12.7 mph - N/A   Scattered Clouds
5:35 PM 87.1 °F 96.8 °F 75.4 °F 68% 29.86 in 10.0 mi SSW 10.4 mph - N/A   Clear
5:55 PM 85.1 °F 93.3 °F 74.8 °F 71% 29.86 in 10.0 mi South 9.2 mph - N/A   Clear
6:15 PM 84.2 °F 92.6 °F 75.6 °F 75% 29.86 in 10.0 mi South 9.2 mph - N/A   Clear
6:35 PM 84.2 °F 93.0 °F 75.7 °F 76% 29.87 in 10.0 mi SW 6.9 mph - N/A   Clear
6:55 PM 84.2 °F 92.6 °F 75.6 °F 75% 29.88 in 10.0 mi Calm Calm - N/A   Clear
7:15 PM 84.2 °F 93.0 °F 75.9 °F 76% 29.88 in 10.0 mi SW 4.6 mph - N/A   Clear
7:35 PM 83.8 °F 92.8 °F 76.3 °F 78% 29.88 in 10.0 mi Calm Calm - N/A   Clear
7:55 PM 83.5 °F 92.6 °F 76.8 °F 80% 29.89 in 10.0 mi Calm Calm - N/A   Clear
8:15 PM 82.8 °F 93.9 °F 79.5 °F 90% 29.89 in 10.0 mi Calm Calm - N/A   Clear
8:35 PM 81.1 °F 91.3 °F 81.3 °F 100% 29.90 in 7.0 mi Calm Calm - N/A   Scattered Clouds
8:55 PM 81.0 °F 90.6 °F 81.1 °F 100% 29.89 in 7.0 mi Calm Calm - N/A   Mostly Cloudy
9:15 PM 81.0 °F 90.6 °F 81.1 °F 100% 29.89 in 10.0 mi East 3.5 mph - N/A   Scattered Clouds
9:35 PM 81.0 °F 90.6 °F 81.1 °F 100% 29.90 in 7.0 mi East 3.5 mph - N/A   Clear
9:55 PM 81.0 °F 90.6 °F 81.1 °F 100% 29.90 in 10.0 mi ENE 3.5 mph - N/A   Clear
10:15 PM 81.0 °F 90.6 °F 81.1 °F 100% 29.90 in 10.0 mi East 4.6 mph - N/A   Clear
10:35 PM 81.0 °F 90.6 °F 81.1 °F 100% 29.90 in 10.0 mi East 4.6 mph - N/A   Scattered Clouds
10:55 PM 81.0 °F 90.6 °F 81.1 °F 100% 29.90 in 10.0 mi SE 3.5 mph - N/A   Clear
11:15 PM 81.0 °F 90.6 °F 81.1 °F 100% 29.91 in 10.0 mi ESE 3.5 mph - N/A   Clear
11:35 PM 81.0 °F 90.6 °F 81.1 °F 100% 29.90 in 10.0 mi SE 4.6 mph - N/A   Clear
11:55 PM 81.0 °F 90.6 °F 81.1 °F 100% 29.90 in 10.0 mi SE 4.6 mph - N/A   Clear